FW6992 Weather Reports


Display with metric or nautical units.
time (UTC)temp
F
wind
direction
speed
MPH
gust
MPH
rain 1hr
in
rain 24hr
in
rain mn
in
humidity
%
barometer
mb
20260503001955 56 141 1.0 2.0 0.00 0.00 0.00 38 1014.1
20260503001452 56 171 0.0 0.0 0.00 0.00 0.00 37 1014.1
20260503000949 56 59 2.0 2.0 0.00 0.00 0.00 37 1013.9
20260503000446 56 270 0.0 2.0 0.00 0.00 0.00 40 1013.8
20260502235944 56 71 0.0 2.0 0.00 0.00 0.00 37 1013.9
20260502235440 56 150 0.0 1.0 0.00 0.00 0.00 39 1013.7
20260502234938 56 145 0.0 2.0 0.00 0.00 0.00 42 1013.7
20260502234434 56 321 0.0 2.0 0.00 0.00 0.00 42 1013.5
20260502233932 56 157 1.0 2.0 0.00 0.00 0.00 40 1013.8
20260502233426 57 53 0.0 2.0 0.00 0.00 0.00 43 1013.5
20260502232924 57 167 0.0 1.0 0.00 0.00 0.00 38 1013.3
20260502232420 57 116 1.0 1.0 0.00 0.00 0.00 37 1013.3
20260502231917 57 136 0.0 2.0 0.00 0.00 0.00 42 1013.2
20260502231415 57 150 0.0 2.0 0.00 0.00 0.00 41 1013.3
20260502230913 57 76 3.0 3.0 0.00 0.00 0.00 39 1013.4
20260502230410 57 119 1.0 3.0 0.00 0.00 0.00 38 1013.1
20260502225908 58 83 0.0 4.0 0.00 0.00 0.00 40 1013.1
20260502225404 58 151 0.0 0.0 0.00 0.00 0.00 41 1013.2
20260502224901 58 110 0.0 1.0 0.00 0.00 0.00 40 1013.0
20260502224356 58 71 0.0 0.0 0.00 0.00 0.00 43 1012.9
20260502223854 58 307 0.0 2.0 0.00 0.00 0.00 40 1012.8
20260502223352 58 267 0.0 2.0 0.00 0.00 0.00 39 1012.9
20260502222849 58 131 0.0 2.0 0.00 0.00 0.00 39 1012.8
20260502222347 58 273 0.0 2.0 0.00 0.00 0.00 38 1012.9
20260502221843 58 304 0.0 0.0 0.00 0.00 0.00 41 1013.0
20260502221339 59 238 0.0 1.0 0.00 0.00 0.00 40 1012.8
20260502220837 59 343 0.0 3.0 0.00 0.00 0.00 43 1012.6
20260502220332 59 150 0.0 0.0 0.00 0.00 0.00 39 1012.9
20260502215829 59 81 0.0 1.0 0.00 0.00 0.00 37 1012.6
20260502215327 59 100 1.0 1.0 0.00 0.00 0.00 41 1012.5
20260502214823 59 123 0.0 3.0 0.00 0.00 0.00 40 1012.7
20260502214320 59 128 1.0 2.0 0.00 0.00 0.00 39 1012.3
20260502213817 59 98 0.0 3.0 0.00 0.00 0.00 37 1012.8
20260502213314 60 311 2.0 2.0 0.00 0.00 0.00 38 1012.6
20260502212813 60 55 0.0 2.0 0.00 0.00 0.00 37 1012.6
20260502212311 60 130 1.0 2.0 0.00 0.00 0.00 38 1012.7
20260502211808 60 70 0.0 2.0 0.00 0.00 0.00 37 1012.5
20260502211303 61 134 0.0 1.0 0.00 0.00 0.00 38 1012.4
20260502210801 61 91 2.0 2.0 0.00 0.00 0.00 38 1012.7
20260502210259 60 97 3.0 3.0 0.00 0.00 0.00 37 1012.4
20260502205755 60 203 0.0 1.0 0.00 0.00 0.00 39 1012.5
20260502205251 60 79 1.0 3.0 0.00 0.00 0.00 35 1012.4
20260502204749 61 171 0.0 1.0 0.00 0.00 0.00 37 1012.5
20260502204246 60 323 2.0 2.0 0.00 0.00 0.00 35 1012.5
20260502203743 61 65 2.0 2.0 0.00 0.00 0.00 37 1012.3
20260502203242 61 156 2.0 3.0 0.00 0.00 0.00 34 1012.3
20260502202735 62 70 1.0 2.0 0.00 0.00 0.00 34 1012.4
20260502202234 61 156 0.0 2.0 0.00 0.00 0.00 37 1012.6
20260502201731 61 95 0.0 2.0 0.00 0.00 0.00 38 1012.8
20260502201227 60 77 0.0 2.0 0.00 0.00 0.00 33 1012.5
20260502200723 61 294 0.0 2.0 0.00 0.00 0.00 36 1012.6
20260502200220 62 340 1.0 2.0 0.00 0.00 0.00 34 1012.9
20260502195718 61 154 0.0 1.0 0.00 0.00 0.00 38 1012.6
20260502195214 60 100 2.0 2.0 0.00 0.00 0.00 34 1012.7
20260502194711 62 80 2.0 2.0 0.00 0.00 0.00 33 1012.8
20260502194209 61 273 0.0 2.0 0.00 0.00 0.00 33 1012.8
20260502193704 62 251 0.0 2.0 0.00 0.00 0.00 35 1013.1
20260502193202 63 161 0.0 2.0 0.00 0.00 0.00 36 1013.1
20260502192656 62 220 0.0 2.0 0.00 0.00 0.00 38 1013.1
20260502192154 62 81 0.0 3.0 0.00 0.00 0.00 30 1013.1
20260502191651 64 209 3.0 3.0 0.00 0.00 0.00 31 1013.1
20260502191148 63 167 2.0 2.0 0.00 0.00 0.00 34 1013.1
20260502190646 63 220 0.0 4.0 0.00 0.00 0.00 32 1013.1
20260502190138 64 255 0.0 3.0 0.00 0.00 0.00 36 1013.5
20260502185632 64 294 1.0 3.0 0.00 0.00 0.00 34 1013.7
20260502185129 64 73 3.0 6.0 0.00 0.00 0.00 31 1013.5
20260502184625 64 114 2.0 2.0 0.00 0.00 0.00 33 1013.6
20260502184115 63 117 3.0 4.0 0.00 0.00 0.00 32 1013.7
20260502183612 61 59 0.0 2.0 0.00 0.00 0.00 36 1013.8
20260502183108 60 195 0.0 2.0 0.00 0.00 0.00 39 1013.8
20260502182603 60 141 0.0 2.0 0.00 0.00 0.00 39 1014.1
20260502182059 60 113 0.0 3.0 0.00 0.00 0.00 35 1014.0
20260502181557 61 196 0.0 3.0 0.00 0.00 0.00 36 1014.0
20260502181056 64 357 1.0 3.0 0.00 0.00 0.00 32 1014.0
20260502180552 65 165 1.0 3.0 0.00 0.00 0.00 34 1014.0
20260502170506 59 92 2.0 3.0 0.00 0.00 0.00 35 1015.0
20260502163949 57 153 2.0 4.0 0.00 0.00 0.00 42 1015.3
20260502163445 58 107 4.0 6.0 0.00 0.00 0.00 37 1015.4
20260502162943 59 204 4.0 4.0 0.00 0.00 0.00 37 1015.3
20260502162439 58 92 1.0 3.0 0.00 0.00 0.00 36 1015.2
20260502161937 58 209 2.0 3.0 0.00 0.00 0.00 36 1015.4
20260502161433 59 110 0.0 2.0 0.00 0.00 0.00 35 1015.3
20260502160931 59 344 2.0 3.0 0.00 0.00 0.00 40 1015.5
20260502160429 58 133 2.0 4.0 0.00 0.00 0.00 36 1015.4
20260502151907 58 150 2.0 4.0 0.00 0.00 0.00 39 1015.7
20260502151403 57 82 3.0 3.0 0.00 0.00 0.00 36 1015.7
20260502150901 58 162 0.0 3.0 0.00 0.00 0.00 37 1015.7
20260502150357 59 50 0.0 3.0 0.00 0.00 0.00 36 1015.5
20260502130745 53 144 2.0 2.0 0.00 0.00 0.00 47 1015.7
20260502130243 53 125 0.0 6.0 0.00 0.00 0.00 47 1015.7
20260502123729 52 77 0.0 4.0 0.00 0.00 0.00 49 1015.1
20260502123225 52 119 1.0 3.0 0.00 0.00 0.00 50 1015.1
20260502122722 52 153 0.0 2.0 0.00 0.00 0.00 51 1015.2
20260502122218 52 154 0.0 2.0 0.00 0.00 0.00 53 1015.2
20260502121717 52 143 1.0 3.0 0.00 0.00 0.00 55 1015.1
20260502121214 52 140 0.0 4.0 0.00 0.00 0.00 53 1015.1
20260502120710 52 161 0.0 2.0 0.00 0.00 0.00 53 1015.1
20260502120208 52 161 2.0 4.0 0.00 0.00 0.00 53 1015.2
20260502115705 52 181 1.0 2.0 0.00 0.00 0.00 55 1015.2
20260502115202 52 38 0.0 2.0 0.00 0.00 0.00 55 1015.0
20260502114657 51 220 0.0 2.0 0.00 0.00 0.00 58 1015.0
20260502114155 50 185 1.0 2.0 0.00 0.00 0.00 59 1014.9
20260502113652 50 110 0.0 0.0 0.00 0.00 0.00 57 1015.0
20260502113150 50 169 0.0 1.0 0.00 0.00 0.00 58 1015.0
20260502112648 50 143 0.0 1.0 0.00 0.00 0.00 59 1015.0
20260502112145 50 324 0.0 2.0 0.00 0.00 0.00 60 1015.1
20260502111642 49 304 0.0 0.0 0.00 0.00 0.00 65 1015.1
20260502111140 49 98 0.0 2.0 0.00 0.00 0.00 65 1014.9
20260502110638 49 110 0.0 2.0 0.00 0.00 0.00 66 1015.0
20260502110135 49 104 1.0 2.0 0.00 0.00 0.00 65 1015.0
20260502105632 49 103 1.0 1.0 0.00 0.00 0.00 63 1015.0
20260502105129 49 138 1.0 2.0 0.00 0.00 0.00 63 1015.0
20260502104626 49 181 0.0 1.0 0.00 0.00 0.00 64 1015.1
20260502104124 49 178 0.0 1.0 0.00 0.00 0.00 62 1015.0
20260502103621 49 146 0.0 1.0 0.00 0.00 0.00 63 1015.0
20260502103119 49 110 0.0 2.0 0.00 0.00 0.00 65 1014.8
20260502102615 50 131 0.0 2.0 0.00 0.00 0.00 66 1014.8
20260502102112 50 120 1.0 2.0 0.00 0.00 0.00 65 1014.8
20260502101610 49 144 0.0 1.0 0.00 0.00 0.00 63 1014.8
20260502101108 50 153 0.0 3.0 0.00 0.00 0.00 66 1014.8
20260502100607 49 214 0.0 1.0 0.00 0.00 0.00 66 1014.6
20260502100105 50 98 1.0 1.0 0.00 0.00 0.00 66 1014.5
20260502091038 50 256 0.0 1.0 0.00 0.00 0.00 66 1014.7
20260502090535 50 173 0.0 2.0 0.00 0.00 0.00 65 1014.6
20260502071430 51 124 0.0 1.0 0.00 0.00 0.00 69 1013.7
20260502070928 52 147 0.0 0.0 0.00 0.00 0.00 70 1013.8
20260502070426 52 151 0.0 2.0 0.00 0.00 0.00 69 1013.9
20260502065924 52 90 0.0 4.0 0.00 0.00 0.00 69 1013.7
20260502065422 52 89 0.0 1.0 0.00 0.00 0.00 70 1013.8
20260502064920 52 154 0.0 2.0 0.00 0.00 0.00 70 1014.1
20260502064417 52 267 0.0 2.0 0.00 0.00 0.00 70 1014.2
20260502063914 52 97 0.0 1.0 0.00 0.00 0.00 70 1014.1
20260502063412 52 168 0.0 1.0 0.00 0.00 0.00 69 1013.8
20260502062910 52 135 0.0 2.0 0.00 0.00 0.00 69 1013.9
20260502062407 52 164 2.0 2.0 0.00 0.00 0.00 69 1014.0
20260502061906 53 162 0.0 2.0 0.00 0.00 0.00 68 1014.1
20260502061403 53 230 0.0 1.0 0.00 0.00 0.00 68 1013.9
20260502060859 53 134 0.0 0.0 0.00 0.00 0.00 68 1014.0
20260502060359 53 233 0.0 0.0 0.00 0.00 0.00 67 1014.2
20260502055856 53 233 0.0 0.0 0.00 0.00 0.00 67 1014.0
20260502055354 53 178 0.0 1.0 0.00 0.00 0.00 69 1014.0
20260502054854 53 156 0.0 0.0 0.00 0.00 0.00 69 1014.0
20260502054350 53 205 0.0 0.0 0.00 0.00 0.00 69 1014.1
20260502053848 53 195 0.0 0.0 0.00 0.00 0.00 69 1014.1
20260502053345 54 145 0.0 1.0 0.00 0.00 0.00 69 1014.0
20260502052843 54 251 0.0 0.0 0.00 0.00 0.00 69 1014.2
20260502052341 54 204 1.0 1.0 0.00 0.00 0.00 68 1014.2
20260502051838 54 150 0.0 1.0 0.00 0.00 0.00 70 1014.2
20260502051337 54 207 0.0 1.0 0.00 0.00 0.00 69 1014.1
20260502050833 54 194 0.0 2.0 0.00 0.00 0.00 70 1013.9
20260502050329 54 149 0.0 0.0 0.00 0.00 0.00 70 1014.0
20260502045826 54 303 0.0 1.0 0.00 0.00 0.00 69 1013.9
20260502045323 54 194 0.0 0.0 0.00 0.00 0.00 70 1014.0
20260502044820 54 226 0.0 2.0 0.00 0.00 0.00 70 1013.9
20260502044316 55 201 0.0 1.0 0.00 0.00 0.00 71 1014.1
20260502043814 55 208 0.0 1.0 0.00 0.00 0.00 70 1013.8
20260502043311 55 239 0.0 1.0 0.00 0.00 0.00 71 1013.8
20260502042810 55 251 0.0 0.0 0.00 0.00 0.00 72 1013.6
20260502042308 55 251 0.0 0.0 0.00 0.00 0.00 73 1013.9
20260502041805 55 150 0.0 0.0 0.00 0.00 0.00 74 1013.9
20260502041303 55 277 0.0 1.0 0.00 0.00 0.00 75 1013.8
20260502040800 56 93 0.0 1.0 0.00 0.00 0.00 75 1013.7
20260502040256 56 218 0.0 0.0 0.00 0.00 0.00 75 1013.6
20260502035752 56 150 0.0 0.0 0.00 0.00 0.00 73 1013.6
20260502035249 57 263 0.0 1.0 0.00 0.00 0.00 71 1013.8
20260502034746 57 226 0.0 1.0 0.02 0.00 0.00 69 1013.5
20260502034245 57 262 0.0 1.0 0.02 0.00 0.00 64 1013.3
20260502033743 58 206 0.0 2.0 0.00 0.00 0.00 61 1013.1
20260502033240 58 182 2.0 2.0 0.00 0.00 0.00 58 1013.4
20260502032736 58 229 1.0 1.0 0.00 0.00 0.00 57 1013.8
20260502032232 58 336 0.0 2.0 0.00 0.00 0.00 55 1013.3
20260502031731 58 163 0.0 1.0 0.00 0.00 0.00 56 1013.2
20260502031228 58 226 0.0 2.0 0.00 0.00 0.00 56 1013.3
20260502030727 58 239 0.0 2.0 0.00 0.00 0.00 55 1013.2
20260502030225 57 314 0.0 1.0 0.00 0.00 0.00 56 1012.9
20260502025721 57 151 0.0 0.0 0.00 0.00 0.00 57 1013.0
20260502025219 57 305 1.0 1.0 0.00 0.00 0.00 56 1013.1
20260502024717 57 233 0.0 0.0 0.00 0.00 0.00 56 1013.0
20260502024215 57 238 0.0 2.0 0.00 0.00 0.00 56 1012.9
20260502023713 57 259 0.0 1.0 0.00 0.00 0.00 56 1012.7
20260502023210 57 231 0.0 2.0 0.00 0.00 0.00 57 1012.7
20260502022707 57 8 0.0 1.0 0.00 0.00 0.00 56 1012.6
20260502022203 57 198 2.0 2.0 0.00 0.00 0.00 56 1012.7
20260502021701 57 331 0.0 0.0 0.00 0.00 0.00 56 1012.6
20260502021158 57 347 0.0 2.0 0.00 0.00 0.00 56 1012.4
20260502020655 58 180 0.0 1.0 0.00 0.00 0.00 55 1012.5
20260502020152 58 251 0.0 1.0 0.00 0.00 0.00 54 1012.5
20260502015650 58 251 0.0 0.0 0.00 0.00 0.00 54 1012.8
20260502015146 58 14 0.0 0.0 0.00 0.00 0.00 54 1012.5
20260502014644 58 238 0.0 0.0 0.00 0.00 0.00 53 1012.5
20260502014140 58 58 0.0 1.0 0.00 0.00 0.00 52 1012.6
20260502013636 58 235 0.0 0.0 0.00 0.00 0.00 52 1012.6
20260502013132 58 238 0.0 0.0 0.00 0.00 0.00 52 1012.5
20260502012629 58 336 0.0 0.0 0.00 0.00 0.00 52 1012.6
20260502012128 58 238 0.0 1.0 0.00 0.00 0.00 51 1012.1
20260502011624 58 238 0.0 0.0 0.00 0.00 0.00 50 1012.2
20260502011120 58 250 0.0 0.0 0.00 0.00 0.00 50 1012.1
20260502010618 59 304 0.0 0.0 0.00 0.00 0.00 49 1012.2
20260502010114 59 343 0.0 1.0 0.00 0.00 0.00 49 1012.0
20260502005612 59 330 0.0 1.0 0.00 0.00 0.00 49 1011.9
20260502005109 59 336 0.0 0.0 0.00 0.00 0.00 47 1011.7
20260502004604 59 245 0.0 1.0 0.00 0.00 0.00 46 1011.8
20260502004101 60 181 0.0 0.0 0.00 0.00 0.00 46 1011.6
20260502003600 60 181 0.0 1.0 0.00 0.00 0.00 45 1011.6
20260502003056 60 233 0.0 0.0 0.00 0.00 0.00 44 1011.4
20260502002552 61 314 0.0 0.0 0.00 0.00 0.00 45 1011.2